Stanley, ID

10:20 PM MST on November 17, 2017 (GMT -0700)
Stanley

Weather History for KSNT - May, 2014

Change the Weather History Date:

Sunday, May 25, 2014

  Actual Average Record
Temperature  
Mean Temperature 50 °F 46 °F  
Max Temperature 69 °F 61 °F 79 °F (1992)
Min Temperature 30 °F 30 °F 16 °F (1920)
Degree Days  
Heating Degree Days 15 20  
Month to date heating degree days 542 570  
Since 1 July heating degree days 9822 10230  
Cooling Degree Days 0 0  
Month to date cooling degree days 0 0  
Year to date cooling degree days 0 0  
Moisture  
Dew Point 32 °F    
Average Humidity 56    
Maximum Humidity 92    
Minimum Humidity 20    
Precipitation  
Precipitation 0.00 in 0.05 in 0.59 in (1998)
Month to date precipitation 0.65 1.40  
Year to date precipitation 12.43 8.24  
Sea Level Pressure  
Sea Level Pressure 29.94 in    
Wind  
Wind Speed 4 mph (SSW)    
Max Wind Speed 16 mph    
Max Gust Speed 22 mph    
T = Trace of Precipitation, MM = Missing Value Source: NWS Daily Summary

Daily Weather History Graph

Daily Weather History Graph

Search for Another Location

Airport or City:

Trip Planner

Search our weather history database for the weather conditions in past years. The results will help you decide how hot, cold, wet, or windy it might be!

Date:

Astronomy

May. 25, 2014 Rise Set
Actual Time 6:03 AM MDT 9:10 PM MDT
Civil Twilight 5:28 AM MDT 9:45 PM MDT
Nautical Twilight 4:44 AM MDT 10:30 PM MDT
Astronomical Twilight 3:50 AM MDT 11:24 PM MDT
Moon 4:18 AM MDT (5/25) 6:08 PM MDT (5/25)
Length of Visible Light 16h 16m
Length of Day
15h 06m
Waning Crescent, 10% of the Moon is Illuminated
May 25
Waning Crescent
May 28
New
Jun 5
First Quarter
Jun 12
Full
Jun 19
Last Quarter

Hourly Weather History & Observations

Time (MDT) Temp. Windchill Dew Point Humidity Pressure Visibility Wind Dir Wind Speed Gust Speed Precip Events Conditions
12:51 AM 39.9 °F - 35.1 °F 83% 29.95 in - Calm Calm - N/A   Unknown
1:51 AM 36.0 °F 33.3 °F 33.1 °F 89% 29.96 in - South 3.5 mph - N/A   Unknown
2:51 AM 35.1 °F 32.2 °F 32.0 °F 89% 29.96 in - Variable 3.5 mph - N/A   Unknown
3:51 AM 33.1 °F 30.0 °F 30.9 °F 92% 29.96 in - SSE 3.5 mph - N/A   Unknown
4:51 AM 32.0 °F - 30.0 °F 92% 29.97 in - Calm Calm - N/A   Unknown
5:51 AM 30.0 °F 25.2 °F 28.0 °F 92% 29.99 in - South 4.6 mph - N/A   Unknown
6:51 AM 30.9 °F 27.5 °F 28.9 °F 92% 30.01 in - South 3.5 mph - N/A   Unknown
7:51 AM 39.0 °F - 33.1 °F 79% 29.99 in - Calm Calm - N/A   Unknown
9:51 AM 51.1 °F - 37.0 °F 59% 29.97 in - Calm Calm - N/A   Unknown
10:51 AM 60.1 °F - 37.9 °F 44% 29.93 in - North 6.9 mph - N/A   Unknown
11:51 AM 64.0 °F - 30.0 °F 28% 29.91 in - Variable 6.9 mph - N/A   Unknown
12:51 PM 66.9 °F - 25.0 °F 21% 29.90 in - Variable 4.6 mph - N/A   Unknown
1:51 PM 68.0 °F - 27.0 °F 21% 29.91 in - SW 8.1 mph 16.1 mph N/A   Unknown
2:51 PM 66.0 °F - 30.0 °F 26% 29.91 in - Variable 5.8 mph - N/A   Unknown
3:51 PM 66.9 °F - 33.1 °F 28% 29.92 in - SW 6.9 mph 18.4 mph N/A   Unknown
4:51 PM 69.1 °F - 35.1 °F 29% 29.89 in - Variable 5.8 mph - N/A   Unknown
5:51 PM 66.0 °F - 33.1 °F 29% 29.92 in - West 5.8 mph - N/A   Unknown
6:51 PM 64.0 °F - 35.1 °F 34% 29.92 in - WSW 6.9 mph - N/A   Unknown
7:51 PM 62.1 °F - 33.1 °F 34% 29.90 in - SW 3.5 mph - N/A   Unknown
8:51 PM 59.0 °F - 36.0 °F 42% 29.90 in - Calm Calm - N/A   Unknown
9:51 PM 48.0 °F - 36.0 °F 63% 29.94 in - Calm Calm - N/A   Unknown
10:51 PM 43.0 °F 41.3 °F 34.0 °F 71% 29.93 in - Variable 3.5 mph - N/A   Unknown
11:51 PM 41.0 °F 37.1 °F 33.1 °F 73% 29.92 in - South 5.8 mph - N/A   Unknown